Terminal Aerodrome Forecast
Issued by NWS Wilmington, NC

Home | Current Version | Previous Version | Text Only | Print | Product List | Glossary On
Versions: 1 2 3 4 5 6 7 8 9 10 11 12 13
000
FTUS42 KILM 281720
TAFMYR
TAF
KMYR 281720Z 2818/2918 22013G20KT P6SM SCT060
     FM290100 23007KT P6SM SKC
     FM291200 25007KT P6SM SKC
     FM291400 27009G15KT P6SM SKC=

USA.gov is the U.S. government's official web portal to all federal, state and local government web resources and services.